User: anonymous   Login
Location: Unspecified
(0.0000°N, 0.0000°E)
Time: 23:16:15
(UTC+00:00)
Language:

YAOGAN-43 O1D - Orbit

View from above orbital plane
View from above orbital plane
View from above satellite
View from above satellite

Ground track
Ground track

The orbit is defined by the following mean orbital elements,

1 60461U          26145.67793545 +.00000000 +00000-0 +23111-3 0 00005
2 60461  35.0043 291.4894 0002988 334.4361  25.6207 15.29516066    05
Epoch (UTC): 25 May 2026 16:16:13
Eccentricity: 0.0002988
inclination: 35.0043°
perigee height: 475 km
apogee height: 479 km
right ascension of ascending node: 291.4894°
argument of perigee: 334.4361°
revolutions per day: 15.29516066
mean anomaly at epoch: 25.6207°

The dashed part of the orbit path shows where the satellite is in the earth's shadow,  

DLR